TimePDT,TemperatureF,Dew PointF,Humidity,Sea Level PressureIn,VisibilityMPH,Wind Direction,Wind SpeedMPH,Gust SpeedMPH,PrecipitationIn,Events,Conditions,WindDirDegrees,DateUTC
12:56 AM,84.0,43.0,24,29.89,10.0,South,13.8,-,N/A,,Clear,190,2013-07-30 07:56:00
1:56 AM,82.9,43.0,24,29.90,10.0,South,5.8,-,N/A,,Clear,170,2013-07-30 08:56:00
2:56 AM,80.1,43.0,27,29.91,10.0,SSW,9.2,-,N/A,,Clear,210,2013-07-30 09:56:00
3:56 AM,77.0,43.0,30,29.92,10.0,South,10.4,-,N/A,,Clear,190,2013-07-30 10:56:00
4:56 AM,78.1,45.0,31,29.94,10.0,South,10.4,-,N/A,,Clear,180,2013-07-30 11:56:00
5:56 AM,75.0,45.0,34,29.96,10.0,South,4.6,-,N/A,,Clear,180,2013-07-30 12:56:00
6:56 AM,78.1,45.0,31,29.98,10.0,Calm,Calm,-,N/A,,Clear,0,2013-07-30 13:56:00
7:56 AM,82.9,43.0,24,29.99,10.0,SSW,3.5,-,N/A,,Clear,200,2013-07-30 14:56:00
8:56 AM,87.1,43.0,21,30.00,10.0,WSW,4.6,-,N/A,,Clear,250,2013-07-30 15:56:00
9:56 AM,91.9,43.0,18,30.00,10.0,Calm,Calm,-,N/A,,Clear,0,2013-07-30 16:56:00
10:56 AM,96.1,45.0,17,29.99,10.0,Calm,Calm,-,N/A,,Clear,0,2013-07-30 17:56:00
11:56 AM,100.0,45.0,15,29.98,10.0,SSW,5.8,-,N/A,,Clear,200,2013-07-30 18:56:00
12:56 PM,100.9,44.1,14,29.96,10.0,ENE,6.9,-,N/A,,Partly Cloudy,60,2013-07-30 19:56:00
1:56 PM,104.0,43.0,13,29.94,10.0,Variable,5.8,-,N/A,,Partly Cloudy,0,2013-07-30 20:56:00
2:56 PM,105.1,42.1,12,29.92,10.0,SE,11.5,18.4,N/A,,Partly Cloudy,130,2013-07-30 21:56:00
3:56 PM,106.0,42.1,11,29.90,10.0,SSW,11.5,17.3,N/A,,Partly Cloudy,210,2013-07-30 22:56:00
4:56 PM,105.1,42.1,12,29.88,10.0,South,10.4,16.1,N/A,,Partly Cloudy,190,2013-07-30 23:56:00
5:56 PM,104.0,41.0,12,29.88,10.0,SSW,10.4,21.9,N/A,,Partly Cloudy,200,2013-07-31 00:56:00
6:56 PM,102.0,41.0,12,29.87,10.0,South,6.9,-,N/A,,Partly Cloudy,170,2013-07-31 01:56:00
7:56 PM,98.1,39.9,13,29.87,10.0,SSW,6.9,-,N/A,,Clear,200,2013-07-31 02:56:00
8:56 PM,93.0,46.9,20,29.90,10.0,South,13.8,-,N/A,,Clear,180,2013-07-31 03:56:00
9:56 PM,91.9,46.0,21,29.92,10.0,South,18.4,-,N/A,,Clear,190,2013-07-31 04:56:00
10:56 PM,90.0,39.9,17,29.93,10.0,SSW,13.8,-,N/A,,Clear,200,2013-07-31 05:56:00
11:56 PM,86.0,43.0,22,29.94,10.0,South,10.4,-,N/A,,Clear,190,2013-07-31 06:56:00